• In Czech Republic
  • List of Countries
  • For 7 days
  • Water Temperature
  • Satellite Maps
  • Weather Map
  • Weather Widgets
  • user-avatar
    Login

    Hourly Weather Jewłach

    Today, 25 May, Friday

    Time Temperature Precipitation Wind Pressure Humidity
    00:00 +25°C° 0 mm 2 mps 757 mmHg 26%
    01:00 +24°C° 0 mm 2 mps 757 mmHg 27%
    02:00 +24°C° 0 mm 2 mps 757 mmHg 27%
    03:00 +23°C° 0 mm 2 mps 757 mmHg 27%
    04:00 +24°C° 0 mm 2 mps 757 mmHg 29%
    05:00 +24°C° 0 mm 2 mps 757 mmHg 30%
    06:00 +25°C° 0 mm 3 mps 757 mmHg 32%
    07:00 +26°C° 0 mm 3 mps 757 mmHg 28%
    08:00 +28°C° 0 mm 3 mps 757 mmHg 25%
    09:00 +30°C° 0 mm 3 mps 756 mmHg 22%
    10:00 +31°C° 0 mm 2 mps 756 mmHg 22%
    11:00 +32°C° 0 mm 2 mps 756 mmHg 21%
    12:00 +34°C° 0 mm 2 mps 755 mmHg 21%
    13:00 +34°C° 0 mm 1 mps 755 mmHg 21%
    14:00 +34°C° 0 mm 1 mps 755 mmHg 21%
    15:00 +34°C° 0 mm 1 mps 754 mmHg 21%
    16:00 +34°C° 0 mm 1 mps 754 mmHg 24%
    17:00 +33°C° 0 mm 1 mps 754 mmHg 27%
    18:00 +32°C° 0 mm 1 mps 754 mmHg 30%
    19:00 +31°C° 0 mm 2 mps 755 mmHg 30%
    20:00 +29°C° 0 mm 2 mps 755 mmHg 31%
    21:00 +28°C° 0 mm 2 mps 756 mmHg 32%
    22:00 +27°C° 0 mm 2 mps 756 mmHg 34%
    23:00 +27°C° 0 mm 2 mps 756 mmHg 35%

    Tomorrow, 26 May, Saturday

    Time Temperature Precipitation Wind Pressure Humidity
    00:00 +26°C° 0 mm 2 mps 756 mmHg 37%
    01:00 +26°C° 0 mm 2 mps 756 mmHg 37%
    02:00 +25°C° 0 mm 2 mps 756 mmHg 37%
    03:00 +25°C° 0 mm 3 mps 756 mmHg 38%
    04:00 +25°C° 0 mm 3 mps 756 mmHg 38%
    05:00 +26°C° 0 mm 3 mps 756 mmHg 39%
    06:00 +26°C° 0 mm 3 mps 756 mmHg 39%
    07:00 +28°C° 0 mm 3 mps 756 mmHg 35%
    08:00 +30°C° 0 mm 3 mps 756 mmHg 31%
    09:00 +32°C° 0 mm 4 mps 756 mmHg 27%
    10:00 +33°C° 0 mm 3 mps 756 mmHg 26%
    11:00 +34°C° 0 mm 3 mps 756 mmHg 25%
    12:00 +35°C° 0 mm 2 mps 756 mmHg 24%
    13:00 +36°C° 0 mm 2 mps 756 mmHg 24%
    14:00 +35°C° 0 mm 1 mps 756 mmHg 24%
    15:00 +35°C° 0 mm 1 mps 756 mmHg 24%
    16:00 +35°C° 0.1 mm 1 mps 756 mmHg 27%
    17:00 +34°C° 0.1 mm 1 mps 756 mmHg 30%
    18:00 +33°C° 0.1 mm 1 mps 756 mmHg 33%
    19:00 +32°C° 0 mm 2 mps 757 mmHg 37%
    20:00 +30°C° 0 mm 3 mps 758 mmHg 40%
    21:00 +28°C° 0 mm 3 mps 759 mmHg 44%
    22:00 +28°C° 0 mm 3 mps 759 mmHg 49%
    23:00 +27°C° 0 mm 3 mps 760 mmHg 55%

    Day after tomorrow, 27 May, Sunday

    Time Temperature Precipitation Wind Pressure Humidity
    00:00 +26°C° 0 mm 3 mps 760 mmHg 60%
    01:00 +25°C° 0.2 mm 2 mps 760 mmHg 62%
    02:00 +25°C° 0.2 mm 2 mps 761 mmHg 64%
    03:00 +24°C° 0.2 mm 1 mps 761 mmHg 67%
    04:00 +25°C° 0.1 mm 1 mps 761 mmHg 66%
    05:00 +25°C° 0.1 mm 1 mps 762 mmHg 65%
    06:00 +25°C° 0.1 mm 2 mps 762 mmHg 64%
    07:00 +26°C° 0 mm 3 mps 762 mmHg 60%
    08:00 +28°C° 0 mm 4 mps 763 mmHg 56%
    09:00 +29°C° 0 mm 4 mps 763 mmHg 52%
    10:00 +30°C° 0 mm 5 mps 763 mmHg 49%
    11:00 +30°C° 0 mm 6 mps 763 mmHg 45%
    12:00 +32°C° 0 mm 6 mps 763 mmHg 42%
    13:00 +32°C° 0 mm 7 mps 763 mmHg 41%
    14:00 +32°C° 0 mm 7 mps 763 mmHg 40%
    15:00 +32°C° 0 mm 8 mps 763 mmHg 39%
    16:00 +31°C° 0 mm 8 mps 763 mmHg 42%
    17:00 +28°C° 0 mm 8 mps 764 mmHg 44%
    18:00 +26°C° 0 mm 9 mps 764 mmHg 47%
    19:00 +24°C° 0 mm 8 mps 765 mmHg 49%
    20:00 +23°C° 0 mm 7 mps 765 mmHg 50%
    21:00 +21°C° 0 mm 6 mps 766 mmHg 52%
    22:00 +21°C° 0 mm 5 mps 766 mmHg 52%
    23:00 +20°C° 0 mm 4 mps 766 mmHg 53%

    28 May, Monday

    Time Temperature Precipitation Wind Pressure Humidity
    00:00 +19°C° 0 mm 3 mps 765 mmHg 54%
    01:00 +19°C° 0 mm 2 mps 765 mmHg 54%
    02:00 +19°C° 0 mm 1 mps 765 mmHg 55%
    03:00 +19°C° 0 mm 1 mps 765 mmHg 56%
    04:00 +19°C° 0 mm 1 mps 765 mmHg 54%
    05:00 +20°C° 0 mm 1 mps 764 mmHg 52%
    06:00 +21°C° 0 mm 1 mps 764 mmHg 49%
    07:00 +21°C° 0 mm 2 mps 764 mmHg 45%
    08:00 +24°C° 0 mm 2 mps 763 mmHg 41%
    09:00 +26°C° 0 mm 2 mps 763 mmHg 37%
    10:00 +27°C° 0 mm 2 mps 762 mmHg 35%
    11:00 +29°C° 0 mm 2 mps 761 mmHg 33%
    12:00 +30°C° 0 mm 2 mps 761 mmHg 31%
    13:00 +31°C° 0 mm 2 mps 760 mmHg 29%
    14:00 +32°C° 0 mm 2 mps 760 mmHg 28%
    15:00 +32°C° 0 mm 2 mps 759 mmHg 27%
    16:00 +32°C° 0 mm 2 mps 759 mmHg 28%
    17:00 +31°C° 0 mm 2 mps 759 mmHg 30%
    18:00 +31°C° 0 mm 2 mps 759 mmHg 31%
    19:00 +30°C° 0 mm 3 mps 760 mmHg 33%
    20:00 +28°C° 0 mm 3 mps 760 mmHg 35%
    21:00 +27°C° 0 mm 3 mps 760 mmHg 38%
    22:00 +26°C° 0 mm 3 mps 760 mmHg 41%
    23:00 +25°C° 0 mm 3 mps 760 mmHg 44%

    29 May, Tuesday

    Time Temperature Precipitation Wind Pressure Humidity
    00:00 +24°C° 0 mm 3 mps 760 mmHg 47%
    01:00 +24°C° 0 mm 2 mps 760 mmHg 48%
    02:00 +24°C° 0 mm 2 mps 760 mmHg 49%
    03:00 +23°C° 0 mm 1 mps 760 mmHg 50%
    04:00 +24°C° 0 mm 1 mps 761 mmHg 50%
    05:00 +24°C° 0 mm 1 mps 761 mmHg 49%
    06:00 +22°C° 0 mm 0 mps 761 mmHg 48%
    07:00 +26°C° 0 mm 1 mps 761 mmHg 44%
    08:00 +27°C° 0 mm 2 mps 761 mmHg 40%
    09:00 +29°C° 0 mm 2 mps 761 mmHg 36%
    10:00 +30°C° 0 mm 3 mps 761 mmHg 34%
    11:00 +32°C° 0 mm 4 mps 761 mmHg 32%
    12:00 +33°C° 0 mm 5 mps 761 mmHg 30%
    13:00 +34°C° 0 mm 5 mps 761 mmHg 30%
    14:00 +34°C° 0 mm 6 mps 760 mmHg 31%
    15:00 +34°C° 0 mm 6 mps 760 mmHg 32%
    16:00 +33°C° 0 mm 7 mps 761 mmHg 35%
    17:00 +31°C° 0 mm 8 mps 761 mmHg 37%
    18:00 +28°C° 0 mm 10 mps 761 mmHg 40%
    19:00 +27°C° 0 mm 9 mps 762 mmHg 40%
    20:00 +26°C° 0 mm 8 mps 762 mmHg 40%
    21:00 +23°C° 0 mm 8 mps 763 mmHg 40%
    22:00 +23°C° 0 mm 7 mps 763 mmHg 41%
    23:00 +22°C° 0 mm 7 mps 763 mmHg 43%

    30 May, Wednesday

    Time Temperature Precipitation Wind Pressure Humidity
    00:00 +22°C° 0 mm 7 mps 764 mmHg 44%
    01:00 +21°C° 0 mm 6 mps 763 mmHg 48%
    02:00 +21°C° 0 mm 6 mps 763 mmHg 52%
    03:00 +20°C° 0 mm 5 mps 763 mmHg 55%
    04:00 +20°C° 0.2 mm 5 mps 764 mmHg 59%
    05:00 +20°C° 0.2 mm 5 mps 764 mmHg 62%
    06:00 +19°C° 0.2 mm 4 mps 764 mmHg 65%
    07:00 +20°C° 0.1 mm 4 mps 764 mmHg 62%
    08:00 +21°C° 0.1 mm 4 mps 763 mmHg 60%
    09:00 +22°C° 0.1 mm 4 mps 763 mmHg 57%
    10:00 +23°C° 0 mm 4 mps 763 mmHg 52%
    11:00 +25°C° 0 mm 3 mps 762 mmHg 47%
    12:00 +27°C° 0 mm 3 mps 762 mmHg 42%
    13:00 +27°C° 0 mm 3 mps 761 mmHg 40%
    14:00 +28°C° 0 mm 2 mps 761 mmHg 38%
    15:00 +28°C° 0 mm 2 mps 760 mmHg 37%
    16:00 +28°C° 0 mm 2 mps 760 mmHg 37%
    17:00 +28°C° 0 mm 1 mps 759 mmHg 38%
    18:00 +28°C° 0 mm 1 mps 759 mmHg 39%
    19:00 +27°C° 0 mm 1 mps 759 mmHg 42%
    20:00 +25°C° 0 mm 1 mps 759 mmHg 45%
    21:00 +24°C° 0 mm 1 mps 759 mmHg 48%
    22:00 +23°C° 0 mm 1 mps 759 mmHg 50%
    23:00 +23°C° 0 mm 2 mps 759 mmHg 51%
    Show more